FW5851 Marcos Paz AR current weather conditions

sailwx.info

Wind from 135 at 5 knots gusting 9

Air temperature 27.8° C
Dewpoint 23.1° C

Last reported at 2020-Jan-25 12:40 UTC.
Time now 2020-Jan-25 13:41 UTC

Location: S 34°47' W 058°56'.
View on Google Maps.

See reports from other nearby stations

  
Tides and Currents Weather Stations Pressure Air Temp Water Temp Dewpoint Dewpoint Depression Visibility Wind Speed Wind Dir Waves Ship Positions
date/time (UTC)wind fromknots sea level pressurealtimeterstation pressurevisibilityair tempwater tempwave heightnotes
2020-Jan-25 12:40 135 5 gusting 9 27.8
2020-Jan-25 12:10 180 3 gusting 10 26.7
2020-Jan-25 11:10 180 1 gusting 5 25.0
2020-Jan-25 10:40 225 1 gusting 5 23.9
2020-Jan-25 10:09 270 1 gusting 4 22.8
2020-Jan-25 09:39 180 1 gusting 5 21.7
2020-Jan-25 09:09 270 1 gusting 4 22.2
2020-Jan-25 08:39 225 3 gusting 4 22.2
2020-Jan-25 08:09 225 2 gusting 4 23.3
2020-Jan-25 07:39 225 1 gusting 4 23.3
2020-Jan-25 07:09 270 1 gusting 3 22.8
2020-Jan-25 07:02 270 2 22.8
2020-Jan-25 06:58 315 1 gusting 3 22.8
2020-Jan-25 06:28 270 0 gusting 2 22.8
2020-Jan-25 05:58 270 1 gusting 3 22.8
2020-Jan-25 05:28 225 1 gusting 6 22.2
2020-Jan-25 04:58 270 3 gusting 6 22.8
2020-Jan-25 04:28 315 1 gusting 6 23.3
2020-Jan-25 03:58 270 1 gusting 6 23.3
2020-Jan-25 03:28 270 3 gusting 7 23.3
2020-Jan-25 02:57 315 3 gusting 5 23.9
2020-Jan-25 02:28 270 0 gusting 2 24.4
2020-Jan-25 01:57 180 23.3
2020-Jan-25 01:27 270 0 gusting 6 24.4
2020-Jan-25 00:57 315 3 gusting 4 25.0
2020-Jan-25 00:27 24.4
2020-Jan-24 23:57 315 2 gusting 6 25.6
2020-Jan-24 23:27 270 3 gusting 6 26.7
2020-Jan-24 22:57 270 2 gusting 10 27.8
2020-Jan-24 22:27 270 4 gusting 8 28.9
2020-Jan-24 21:57 270 3 gusting 11 30.0
2020-Jan-24 21:27 270 6 gusting 13 30.6
2020-Jan-24 20:57 270 6 gusting 8 31.1
2020-Jan-24 20:45 225 6 gusting 14 31.1
2020-Jan-24 20:15 270 9 gusting 14 31.1
2020-Jan-24 19:45 270 6 gusting 14 31.7
2020-Jan-24 19:15 270 6 gusting 18 31.1
2020-Jan-24 18:45 270 7 gusting 14 31.1
2020-Jan-24 18:15 225 8 gusting 15 31.1
2020-Jan-24 17:45 225 4 gusting 14 30.6
2020-Jan-24 17:15 270 11 gusting 16 30.6
2020-Jan-24 16:45 225 10 gusting 18 30.0
2020-Jan-24 16:15 270 6 gusting 16 30.0
2020-Jan-24 15:44 225 9 gusting 17 28.9
2020-Jan-24 15:14 270 9 gusting 19 28.9
2020-Jan-24 14:44 270 9 gusting 17 28.9
2020-Jan-24 14:14 270 13 gusting 14 27.8
2020-Jan-24 13:44 270 8 gusting 14 27.2
2020-Jan-24 13:14 270 6 gusting 18 26.1
2020-Jan-24 12:44 270 6 gusting 14 25.0
2020-Jan-24 12:14 270 10 gusting 13 23.9
2020-Jan-24 11:40 315 7 gusting 15 22.8
2020-Jan-24 11:10 315 6 gusting 11 21.7
2020-Jan-24 10:40 270 7 gusting 11 20.6
2020-Jan-24 10:10 315 4 gusting 8 20.0
2020-Jan-24 09:40 19.4
2020-Jan-24 09:10 18.3
2020-Jan-24 08:40 20.0
2020-Jan-24 08:10 270 20.0
2020-Jan-24 07:40 270 1 gusting 4 20.6
2020-Jan-24 07:10 20.0
2020-Jan-24 07:02 270 1 20.6
2020-Jan-24 06:42 20.6
2020-Jan-24 06:12 315 1 gusting 3 20.0
2020-Jan-24 05:42 20.6
2020-Jan-24 05:12 20.0
2020-Jan-24 04:12 090 20.6
2020-Jan-24 03:42 270 20.6
2020-Jan-24 03:12 090 21.1
2020-Jan-24 02:41 21.7
2020-Jan-24 02:11 090 22.2
2020-Jan-24 01:41 270 1 gusting 3 23.3
2020-Jan-24 01:11 23.3
2020-Jan-24 00:41 24.4
2020-Jan-24 00:11 24.4
2020-Jan-23 23:41 270 1 gusting 4 26.1
2020-Jan-23 23:11 270 3 gusting 6 26.1
2020-Jan-23 22:41 270 3 gusting 7 27.8
2020-Jan-23 22:11 270 2 gusting 9 28.9
2020-Jan-23 21:41 270 3 gusting 9 30.0
2020-Jan-23 21:11 30.0
2020-Jan-23 20:41 270 5 gusting 11 30.6
2020-Jan-23 20:11 270 6 gusting 10 30.6
2020-Jan-23 19:40 315 5 gusting 13 30.6
2020-Jan-23 19:10 270 7 gusting 13 30.6
2020-Jan-23 18:40 270 2 gusting 13 30.6
2020-Jan-23 18:10 315 7 gusting 13 30.0
2020-Jan-23 17:40 270 7 gusting 12 30.0
2020-Jan-23 17:10 315 3 gusting 13 30.0
2020-Jan-23 16:40 30.0
2020-Jan-23 16:10 29.4
2020-Jan-23 15:40 28.9
2020-Jan-23 15:10 270 6 gusting 13 28.3
2020-Jan-23 14:40 27.8
2020-Jan-23 14:10 27.2
2020-Jan-23 13:40 315 2 gusting 9 26.7
2020-Jan-23 13:10 180 3 gusting 10 25.6